Content
SEND FEEDBACK

Daily
Averages
Monthly
Summary
United States of America

MOUNT SHASTA, CALIFORNIA


Home > North America > United States > California
Elevation: 3679 feet     Latitude: 41 19N     Longitude: 122 19W

WEATHER
 
SELECT A DAY
Number of Records: 236,504;   Date Range: 1/1/95 - 12/26/14
 
SHARE

PRINT THIS DATA

[ ← Previous Day ]
WEATHER ALMANAC - JULY 30, 2014
[ Next Day → ]
[ °C ]   °F
Weather ElementAverageHighLow
Temperature74.4 °F97 °F (1:56 pm)53.1 °F (6:56 am)
Dewpoint44.9 °F51.1 °F (8:56 am)39 °F (9:56 pm)
Humidity37.8 %61 % (8:56 am)17 % (4:56 pm)
Barometer30.07 in30.12 in (10:56 am)30.00 in (2:56 am)
Wind Speed2.1 mph5.8 mph (9:56 am)
Weather ElementAverage
Visibility10 mi
Wind DirectionNNE (9.2 °)

Weather ElementTotal
Precipitation---
Cooling Degree Days10.1 (Base 65)
Growing Degree Days25.1 (Base 50)
Averaged from 24 records on July 30, 2014
WEATHER CONDITIONS BREAKOUT
WIND DIRECTION BREAKOUT
WEATHER BY HOUR - JULY 30, 2014
[ °C ]   °F
Local TimeTemperatureDewpointHumidityBarometerVisibilityWind DirectionWind SpeedGust SpeedPrecipitationEventsConditions
12:56 AM61.0 °F39.9 °F46 %30.09 in10.0 miENE (60°)4.6 mphClear
1:56 AM57.9 °F39.0 °F49 %30.09 in10.0 miCalmClear
2:56 AM57.0 °F39.0 °F51 %30.09 in10.0 miCalmClear
3:56 AM57.0 °F39.0 °F51 %30.09 in10.0 miCalmClear
4:56 AM53.1 °F39.9 °F61 %30.10 in10.0 miCalmClear
5:56 AM55.9 °F39.9 °F55 %30.10 in10.0 miCalmClear
6:56 AM55.9 °F41.0 °F57 %30.12 in10.0 miNE (40°)3.5 mphClear
7:56 AM66.9 °F48.0 °F51 %30.10 in10.0 miCalmClear
8:56 AM77.0 °F51.1 °F40 %30.09 in10.0 miCalmClear
9:56 AM82.9 °F46.9 °F28 %30.07 in10.0 miCalmClear
10:56 AM89.1 °F50.0 °F26 %30.06 in10.0 miCalmClear
11:56 AM91.9 °F48.9 °F23 %30.06 in10.0 miVariable3.5 mphClear
12:56 PM95.0 °F46.0 °F19 %30.04 in10.0 miVariable3.5 mphClear
1:56 PM97.0 °F45.0 °F17 %30.02 in10.0 miVariable3.5 mphClear
2:56 PM87.1 °F48.0 °F26 %30.04 in10.0 miNorthPartly Cloudy
3:56 PM95.0 °F48.0 °F20 %30.00 in10.0 miVariable4.6 mphClear
4:56 PM87.1 °F46.0 °F24 %30.01 in10.0 miVariable5.8 mphClear
5:56 PM82.0 °F46.9 °F29 %30.03 in10.0 miVariable3.5 mphClear
6:56 PM80.1 °F46.9 °F31 %30.07 in10.0 miVariable3.5 mphClear
7:56 PM80.6 °F44.6 °F28 %30.11 in10.0 miVariable4.6 mphClear
8:56 PM73.0 °F46.0 °F38 %30.07 in10.0 miCalmClear
9:56 PM71.1 °F46.0 °F41 %30.09 in10.0 miENE (70°)3.5 mphScattered Clouds
10:56 PM66.9 °F45.0 °F45 %30.09 in10.0 miCalmClear
11:56 PM64.0 °F46.0 °F52 %30.08 in10.0 miNE (50°)3.5 mphClear
Hourly data recorded from KMHS, located miles away from Mount Shasta, California







STORIES FROM OUR PARTNERS